Location: Lane
(33.5226°N, 79.8788°W)
Time: 10:45:57
(UTC+00:00)

Altair - Pass Details

Date: 08 October 2022
Orbit: 1501 x 1682 km, 47.2° (Epoch: 30 November)

Event Time Altitude Azimuth Distance (km) Brightness Sun altitude
Rises 12:29:25 0° 296° (WNW) 4,825 9.5 13.5°
Reaches altitude 10° 12:32:51 10° 304° (NW) 3,864 9.1 14.2°
Maximum altitude 12:42:00 39° 11° (N) 2,317 8.6 16.0°
Drops below altitude 10° 12:51:19 10° 78° (ENE) 3,942 10.8 17.9°
Sets 12:54:50 0° 86° (E) 4,932 11.3 18.5°
